Flag for Brazil Weather past 2 weeks in Maceió, Alagoas, Brazil

Now
84 °F

Scattered clouds.


Feels Like: 87 °F
Forecast: 68 / 86 °F
Wind: 7 mph from Southeast

Location: Maceio Aeroporto

Current Time: Mar 28, 2015 at 9:24:06 AM

Latest Report: Mar 28, 2015 at 9:00 AM


Visibility: N/A

Pressure: 30.07 "Hg

Humidity: 58%

Dew point: 68 °F

Location of MaceióLocation

Historic Weather in Maceió — Graph

°F

Maceió temperature yesterday

Maximum temperature yesterday: 88 °F (at 10:00 AM)
Minimum temperature yesterday: 73 °F (at 12:00 AM)
Average temperature yesterday: 79 °F

Past Weeks' High & Low Weather Summary

 TemperatureHumidityPressure
High90 °F (Mar 25, 12:00 PM)100% (Mar 15, 1:00 AM)30.07 "Hg (Mar 15, 1:00 AM)
Low68 °F (Mar 15, 12:00 AM)43% (Mar 24, 3:00 PM)29.83 "Hg (Mar 13, 2:00 PM)
Average79 °F79%29.92 "Hg
* Reported Mar 13 8:00 AM — Mar 28 8:00 AM, Maceió, Weather by CustomWeather, © 2015

Note: Actual official high and low records may vary slightly from our data, if they occured in-between our weather recording intervals... More about our weather records

Advertising

Maceió weather history for previous 24 hours

 ConditionsComfort  
Time TempWeatherWind HumidityBarometerVisibility
8:00 AM
Sat, Mar 28
82 °FPassing clouds.2 mph66%30.07 "HgN/A
7:00 AM75 °FPassing clouds.3 mph89%30.04 "HgN/A
6:00 AM72 °FScattered clouds.5 mph94%30.01 "HgN/A
5:00 AM72 °FPassing clouds.3 mph100%30.01 "HgN/A
4:00 AM72 °FClear.5 mph94%29.98 "Hg10 mi
3:00 AM72 °FClear.3 mph94%29.98 "Hg10 mi
2:00 AM72 °FPassing clouds.3 mph94%29.95 "HgN/A
1:00 AM73 °FClear.3 mph94%29.98 "Hg10 mi
12:00 AM73 °FClear.3 mph94%30.01 "Hg10 mi
11:00 PM
Fri, Mar 27
73 °FClear.No wind94%30.01 "Hg10 mi
10:00 PM73 °FPassing clouds.2 mph94%30.04 "HgN/A
9:00 PM75 °FPassing clouds.No wind89%30.04 "HgN/A
8:00 PM75 °FPassing clouds.5 mph89%30.01 "HgN/A
7:00 PM77 °FPassing clouds.5 mph83%29.98 "HgN/A
6:00 PM79 °FPassing clouds.8 mph74%29.98 "HgN/A
5:00 PM84 °FScattered clouds.10 mph55%29.95 "HgN/A
4:00 PM86 °FScattered clouds.12 mph52%29.95 "HgN/A
3:00 PM88 °FScattered clouds.9 mph46%29.95 "HgN/A
2:00 PM88 °FScattered clouds.10 mph49%29.95 "HgN/A
1:00 PM88 °FScattered clouds.12 mph49%29.98 "HgN/A
12:00 PM88 °FScattered clouds.10 mph46%30.01 "HgN/A
11:00 AM88 °FScattered clouds.10 mph46%30.01 "HgN/A
10:00 AM88 °FScattered clouds.9 mph49%30.04 "HgN/A
9:00 AM84 °FScattered clouds.9 mph58%30.04 "HgN/A
Weather by CustomWeather, © 2015

See weather overviewHow to use our weather pages